Flag for U.S.A. Weather past 2 weeks in Vista, California, U.S.A.

Now
67 °F

Overcast.


Feels Like: 67 °F
Forecast: 60 / 76 °F
Wind: 5 mph from Southeast

Location: McClellan-Palomar Airport

Current Time: Sep 5, 2015 at 5:34:52 AM

Latest Report: Sep 5, 2015 at 4:53 AM


Visibility: 10 mi

Pressure: 29.86 "Hg

Humidity: 76%

Dew point: 59 °F

Location of VistaLocation

Historic Weather in Vista — Graph

°F

Vista temperature yesterday

Maximum temperature yesterday: 73 °F (at 1:53 PM)
Minimum temperature yesterday: 67 °F (at 8:53 PM)
Average temperature yesterday: 69 °F

Past Weeks' High & Low Weather Summary

 TemperatureHumidityPressure
High86 °F (Aug 28, 9:53 AM)100% (Aug 29, 4:53 AM)29.98 "Hg (Aug 29, 4:53 AM)
Low66 °F (Sep 3, 1:53 AM)37% (Aug 28, 4:53 PM)29.81 "Hg (Aug 28, 4:53 PM)
Average72 °F76%29.90 "Hg
* Reported Aug 21 3:53 AM — Sep 5 3:53 AM, Vista, Weather by CustomWeather, © 2015

Note: Actual official high and low records may vary slightly from our data, if they occured in-between our weather recording intervals... More about our weather records

Advertising

Vista weather history for previous 24 hours

 ConditionsComfort  
Time TempWeatherWind HumidityBarometerVisibility
3:53 AM
Sat, Sep 5
68 °FOvercast.5 mph73%29.87 "Hg10 mi
2:53 AM68 °FOvercast.3 mph73%29.88 "Hg10 mi
1:53 AM68 °FOvercast.No wind73%29.87 "Hg10 mi
12:53 AM68 °FOvercast.3 mph73%29.86 "Hg10 mi
11:53 PM
Fri, Sep 4
68 °FOvercast.5 mph73%29.86 "Hg10 mi
10:53 PM68 °FOvercast.5 mph76%29.88 "Hg10 mi
9:53 PM67 °FPassing clouds.No wind79%29.87 "Hg10 mi
8:53 PM67 °FPassing clouds.3 mph79%29.85 "Hg10 mi
7:53 PM68 °FPassing clouds.3 mph73%29.83 "Hg10 mi
6:53 PM69 °FScattered clouds.5 mph73%29.83 "Hg10 mi
5:53 PM70 °FSunny.7 mph71%29.83 "Hg10 mi
4:53 PM70 °FScattered clouds.8 mph68%29.83 "Hg10 mi
3:53 PM72 °FPassing clouds.7 mph64%29.83 "Hg10 mi
2:53 PM72 °FPassing clouds.10 mph64%29.84 "Hg10 mi
1:53 PM73 °FSunny.12 mph59%29.86 "Hg10 mi
12:53 PM72 °FPassing clouds.12 mph59%29.87 "Hg10 mi
11:53 AM72 °FScattered clouds.10 mph59%29.88 "Hg10 mi
10:53 AM71 °FScattered clouds.7 mph61%29.89 "Hg10 mi
9:53 AM70 °FOvercast.8 mph68%29.89 "Hg10 mi
8:53 AM70 °FOvercast.9 mph68%29.88 "Hg10 mi
7:53 AM69 °FOvercast.5 mph70%29.87 "Hg10 mi
6:53 AM68 °FOvercast.5 mph73%29.86 "Hg10 mi
5:53 AM68 °FOvercast.3 mph73%29.85 "Hg10 mi
Weather by CustomWeather, © 2015

See weather overviewHow to use our weather pages